FW7576 Weather Reports


Display with metric or nautical units.
time (UTC)temp
F
wind
direction
speed
MPH
gust
MPH
rain 1hr
in
rain 24hr
in
rain mn
in
humidity
%
barometer
mb
20260903050050 77 0 0.0 1.0 0.00 0.00 0.00 86 1013.7
20260903044542 77 0 0.0 0.0 0.00 0.00 0.00 86 1013.5
20260903043048 77 0 0.0 0.0 0.00 0.00 0.00 87 1013.4
20260903041546 77 0 0.0 0.0 0.00 0.00 0.00 86 1013.4
20260903040045 78 0 0.0 0.0 0.00 0.00 0.00 86 1013.3
20260903034544 78 0 0.0 0.0 0.00 0.00 0.00 86 1013.4
20260903033047 78 0 0.0 0.0 0.00 0.00 0.00 86 1013.3
20260903031547 78 0 0.0 0.0 0.00 0.00 0.00 86 1013.3
20260903030043 79 0 0.0 0.0 0.00 0.00 0.00 85 1013.3
20260903024546 79 0 0.0 0.0 0.00 0.00 0.00 85 1013.3
20260903023056 79 0 0.0 0.0 0.00 0.00 0.00 84 1013.3
20260903021544 80 0 0.0 0.0 0.00 0.00 0.00 83 1013.2
20260903020053 80 0 0.0 0.0 0.00 0.00 0.00 83 1013.2
20260903014543 81 0 0.0 0.0 0.00 0.00 0.00 82 1013.1
20260903013052 81 0 0.0 0.0 0.00 0.00 0.00 80 1013.0
20260903011540 82 0 0.0 0.0 0.00 0.00 0.00 79 1012.8
20260903010043 83 0 0.0 0.0 0.00 0.00 0.00 77 1012.7
20260903004549 84 0 0.0 0.0 0.00 0.00 0.00 75 1012.5
20260903003048 85 0 0.0 2.0 0.00 0.00 0.00 73 1012.4
20260903001545 86 0 0.0 2.0 0.00 0.00 0.00 71 1012.5
20260903000042 87 252 0.0 3.0 0.00 0.00 0.00 70 1012.7
20260902234600 87 242 1.0 5.0 0.00 0.00 0.00 69 1012.7
20260902233043 87 244 1.0 4.0 0.00 0.00 0.00 69 1012.6
20260902231623 87 249 3.0 5.0 0.00 0.00 0.00 69 1012.7
20260902230050 87 237 2.0 5.0 0.00 0.00 0.00 69 1012.6
20260902224548 87 290 2.0 5.0 0.00 0.01 0.00 67 1012.6
20260902223044 88 250 2.0 5.0 0.00 0.01 0.00 66 1012.8
20260902221544 88 240 1.0 6.0 0.00 0.01 0.00 66 1013.0
20260902220045 88 236 2.0 7.0 0.00 0.01 0.00 64 1012.7
20260902214543 88 328 2.0 6.0 0.00 0.05 0.00 64 1012.7
20260902213049 89 260 4.0 12.0 0.00 0.05 0.00 61 1013.0
20260902211544 90 243 5.0 12.0 0.00 0.05 0.00 58 1012.9
20260902210045 89 252 4.0 12.0 0.00 0.05 0.00 59 1012.9
20260902204551 90 259 6.0 12.0 0.00 0.07 0.00 57 1013.0
20260902203048 89 193 4.0 11.0 0.00 0.07 0.00 63 1012.6
20260902201553 89 333 3.0 8.0 0.00 0.07 0.00 64 1012.8
20260902200045 89 255 3.0 8.0 0.00 0.07 0.00 65 1013.0
20260902194541 89 250 4.0 8.0 0.00 0.07 0.00 64 1013.1
20260902193046 89 250 2.0 10.0 0.00 0.07 0.00 64 1013.2
20260902191543 89 252 2.0 7.0 0.00 0.07 0.00 68 1013.3
20260902190040 88 238 2.0 7.0 0.00 0.07 0.00 68 1013.4
20260902184540 89 159 0.0 2.0 0.00 0.07 0.00 67 1013.5
20260902183048 87 248 1.0 8.0 0.00 0.07 0.00 67 1013.6
20260902181553 87 259 2.0 5.0 0.00 0.07 0.00 67 1013.7
20260902180040 86 276 1.0 6.0 0.00 0.07 0.00 68 1013.8
20260902174539 86 227 3.0 8.0 0.00 0.07 0.00 66 1014.0
20260902173047 86 183 1.0 5.0 0.00 0.07 0.00 65 1014.0
20260902171559 86 285 2.0 5.0 0.00 0.07 0.00 65 1014.0
20260902170050 86 0 1.0 4.0 0.00 0.07 0.00 64 1014.1
20260902164545 85 256 0.0 3.0 0.00 0.07 0.00 66 1014.4
20260902163042 83 102 0.0 5.0 0.00 0.07 0.00 69 1014.6
20260902161543 82 143 2.0 8.0 0.00 0.07 0.00 70 1013.9
20260902154545 81 155 3.0 6.0 0.00 0.07 0.00 70 1014.3
20260902153041 80 60 3.0 7.0 0.00 0.07 0.00 72 1014.5
20260902151555 79 0 1.0 7.0 0.00 0.07 0.00 73 1014.6
20260902150048 79 77 1.0 4.0 0.00 0.07 0.00 74 1014.6
20260902144543 77 56 3.0 5.0 0.00 0.07 0.00 76 1014.6
20260902143045 76 122 2.0 5.0 0.00 0.07 0.00 76 1014.7
20260902141540 76 67 1.0 4.0 0.00 0.07 0.00 76 1015.0
20260902140047 76 131 1.0 6.0 0.00 0.07 0.00 75 1015.2
20260902134544 77 108 2.0 7.0 0.00 0.07 0.00 74 1015.0
20260902133047 76 57 3.0 6.0 0.00 0.07 0.00 77 1015.0
20260902131551 76 70 4.0 8.0 0.00 0.07 0.00 77 1015.4
20260902130045 76 56 2.0 5.0 0.00 0.07 0.00 79 1015.5
20260902124543 76 65 3.0 5.0 0.00 0.07 0.00 81 1015.4
20260902123046 75 0 1.0 6.0 0.00 0.07 0.00 84 1015.7
20260902121540 75 0 1.0 7.0 0.00 0.07 0.00 86 1015.6
20260902120046 74 0 0.0 4.0 0.00 0.07 0.00 86 1015.2
20260902114552 74 293 0.0 6.0 0.00 0.07 0.00 84 1015.3
20260902113040 73 0 0.0 0.0 0.00 0.07 0.00 83 1014.9
20260902111550 73 0 0.0 0.0 0.00 0.07 0.00 83 1014.0
20260902110058 73 0 0.0 0.0 0.00 0.07 0.00 83 1013.9
20260902104543 73 0 0.0 0.0 0.00 0.07 0.00 83 1014.2
20260902103042 73 0 0.0 0.0 0.00 0.07 0.00 83 1014.1
20260902101543 73 0 0.0 0.0 0.00 0.07 0.00 83 1014.2
20260902100043 73 0 0.0 0.0 0.00 0.07 0.00 83 1014.3
20260902094545 74 0 0.0 0.0 0.00 0.07 0.00 83 1014.5
20260902093047 73 0 0.0 0.0 0.00 0.07 0.00 84 1014.4
20260902091541 73 0 0.0 0.0 0.00 0.07 0.00 84 1014.4
20260902090043 74 0 0.0 0.0 0.00 0.07 0.00 84 1014.1
20260902084556 74 0 0.0 0.0 0.00 0.07 0.00 85 1014.1
20260902083047 74 0 0.0 0.0 0.00 0.07 0.00 85 1014.3
20260902081545 74 0 0.0 0.0 0.00 0.07 0.00 85 1014.0
20260902080055 75 0 0.0 0.0 0.00 0.07 0.00 85 1013.8
20260902074546 75 0 0.0 0.0 0.00 0.07 0.00 86 1014.2
20260902073046 76 0 0.0 0.0 0.00 0.07 0.00 86 1014.1
20260902071542 76 0 0.0 2.0 0.00 0.07 0.00 86 1014.1
20260902070044 76 0 0.0 0.0 0.00 0.07 0.00 86 1014.1
20260902064540 76 0 0.0 0.0 0.00 0.07 0.00 86 1013.9
20260902063043 76 0 0.0 0.0 0.00 0.07 0.00 85 1013.9
20260902060048 76 0 0.0 0.0 0.00 0.07 0.00 85 1014.4
20260902054547 76 0 0.0 0.0 0.00 0.07 0.00 86 1014.4
20260902053041 76 0 0.0 0.0 0.00 0.07 0.00 86 1014.2
20260902051547 76 0 0.0 0.0 0.00 0.07 0.00 86 1014.0